EW9362 Weather Reports


Display with metric or nautical units.
time (UTC)temp
F
wind
direction
speed
MPH
gust
MPH
rain 1hr
in
rain 24hr
in
rain mn
in
humidity
%
barometer
mb
20260902101554 75 0 0.0 0.0 0.00 0.00 0.00 88 1017.8
20260902101030 75 0 0.0 0.0 0.00 0.00 0.00 88 1017.8
20260902100529 75 0 0.0 0.0 0.00 0.00 0.00 88 1017.8
20260902100048 75 0 0.0 0.0 0.00 0.00 0.00 88 1017.8
20260902095531 75 0 0.0 0.0 0.00 0.00 0.00 87 1017.7
20260902095028 75 0 0.0 0.0 0.00 0.00 0.00 87 1017.9
20260902094556 75 0 0.0 0.0 0.00 0.00 0.00 87 1017.6
20260902094028 75 0 0.0 0.0 0.00 0.00 0.00 87 1017.7
20260902093529 76 0 0.0 0.0 0.00 0.00 0.00 86 1017.6
20260902093047 76 0 0.0 1.0 0.00 0.00 0.00 86 1017.5
20260902092530 76 0 0.0 1.0 0.00 0.00 0.00 86 1017.5
20260902092032 76 0 0.0 1.0 0.00 0.00 0.00 86 1017.5
20260902091557 76 0 0.0 1.0 0.00 0.00 0.00 86 1017.4
20260902091029 76 178 0.0 1.0 0.00 0.00 0.00 86 1017.3
20260902090530 76 0 0.0 0.0 0.00 0.00 0.00 86 1017.4
20260902090053 76 183 0.0 0.0 0.00 0.00 0.00 86 1017.2
20260902085530 76 0 0.0 0.0 0.00 0.00 0.00 86 1017.3
20260902085029 76 0 0.0 0.0 0.00 0.00 0.00 85 1017.3
20260902084553 76 0 0.0 0.0 0.00 0.00 0.00 85 1017.3
20260902084032 76 0 0.0 0.0 0.00 0.00 0.00 85 1017.3
20260902083533 77 0 0.0 1.0 0.00 0.00 0.00 84 1017.2
20260902083054 77 0 0.0 1.0 0.00 0.00 0.00 84 1017.4
20260902082531 77 159 0.0 1.0 0.00 0.00 0.00 84 1017.4
20260902082029 77 166 0.0 1.0 0.00 0.00 0.00 83 1017.2
20260902081556 77 0 0.0 1.0 0.00 0.00 0.00 83 1017.3
20260902081030 77 196 0.0 1.0 0.00 0.00 0.00 83 1017.2
20260902080530 78 183 0.0 2.0 0.00 0.00 0.00 82 1017.2
20260902080046 78 0 0.0 3.0 0.00 0.00 0.00 82 1017.1
20260902075528 78 0 0.0 3.0 0.00 0.00 0.00 82 1017.0
20260902075029 78 0 0.0 3.0 0.00 0.00 0.00 82 1017.0
20260902074551 78 0 0.0 3.0 0.00 0.00 0.00 82 1016.9
20260902074031 78 175 0.0 3.0 0.00 0.00 0.00 82 1017.0
20260902073528 78 147 0.0 2.0 0.00 0.00 0.00 81 1017.0
20260902073051 78 183 0.0 2.0 0.00 0.00 0.00 81 1017.0
20260902072530 78 164 0.0 4.0 0.00 0.00 0.00 81 1016.9
20260902072031 79 0 1.0 4.0 0.00 0.00 0.00 80 1016.9
20260902071552 79 0 1.0 4.0 0.00 0.00 0.00 80 1017.0
20260902071029 79 240 1.0 5.0 0.00 0.00 0.00 80 1017.0
20260902070528 79 201 0.0 5.0 0.00 0.00 0.00 80 1016.9
20260902070100 78 187 0.0 3.0 0.00 0.00 0.00 81 1017.0
20260902065531 78 0 0.0 2.0 0.00 0.00 0.00 81 1017.0
20260902065032 78 157 0.0 1.0 0.00 0.00 0.00 81 1017.0
20260902064604 78 196 0.0 1.0 0.00 0.00 0.00 81 1017.0
20260902064034 78 169 0.0 0.0 0.00 0.00 0.00 81 1017.0
20260902063532 78 158 0.0 0.0 0.00 0.00 0.00 81 1017.0
20260902063104 79 0 0.0 0.0 0.00 0.00 0.00 81 1017.0
20260902062534 79 167 0.0 0.0 0.00 0.00 0.00 80 1017.1
20260902062030 79 0 0.0 2.0 0.00 0.00 0.00 80 1017.2
20260902061609 79 0 0.0 4.0 0.00 0.00 0.00 80 1017.2
20260902061028 80 184 0.0 4.0 0.00 0.00 0.00 79 1017.2
20260902060529 80 203 1.0 4.0 0.00 0.00 0.00 78 1017.2
20260902060052 80 0 0.0 2.0 0.00 0.00 0.00 78 1017.3
20260902055532 80 0 0.0 3.0 0.00 0.00 0.00 78 1017.2
20260902055030 80 226 0.0 3.0 0.00 0.00 0.00 78 1017.4
20260902054553 80 176 1.0 3.0 0.00 0.00 0.00 78 1017.2
20260902054029 80 164 0.0 0.0 0.00 0.00 0.00 78 1017.1
20260902053532 80 0 0.0 2.0 0.00 0.00 0.00 78 1017.2
20260902053059 80 0 0.0 2.0 0.00 0.00 0.00 77 1017.2
20260902052528 80 0 0.0 2.0 0.00 0.00 0.00 77 1017.2
20260902052031 80 0 0.0 0.0 0.00 0.00 0.00 77 1017.1
20260902051605 80 0 0.0 0.0 0.00 0.00 0.00 77 1017.1
20260902051031 80 0 0.0 0.0 0.00 0.00 0.00 77 1017.1
20260902050531 80 0 0.0 0.0 0.00 0.00 0.00 77 1017.1
20260902050051 80 0 0.0 1.0 0.00 0.00 0.00 77 1017.1
20260902045530 80 0 0.0 1.0 0.00 0.00 0.00 77 1017.1
20260902045028 80 0 0.0 2.0 0.00 0.00 0.00 77 1017.2
20260902044605 80 0 0.0 2.0 0.00 0.00 0.00 77 1017.1
20260902044032 81 0 0.0 3.0 0.00 0.00 0.00 76 1017.1
20260902043528 81 0 0.0 3.0 0.00 0.00 0.00 76 1017.1
20260902043055 81 186 0.0 3.0 0.00 0.00 0.00 76 1017.1
20260902042528 81 0 0.0 3.0 0.00 0.00 0.00 76 1017.1
20260902042028 81 0 0.0 3.0 0.00 0.00 0.00 76 1017.2
20260902041556 81 171 0.0 3.0 0.00 0.00 0.00 76 1017.2
20260902041028 81 186 0.0 1.0 0.00 0.00 0.00 76 1017.2
20260902040528 81 0 0.0 1.0 0.00 0.00 0.00 75 1017.1
20260902040051 81 181 0.0 1.0 0.00 0.00 0.00 74 1017.0
20260902035529 81 173 0.0 2.0 0.00 0.00 0.00 74 1017.0
20260902035032 81 175 0.0 2.0 0.00 0.00 0.00 73 1017.1
20260902034547 81 0 0.0 2.0 0.00 0.00 0.00 74 1017.0
20260902034028 80 165 0.0 1.0 0.00 0.00 0.00 76 1017.1
20260902033529 80 0 0.0 0.0 0.00 0.00 0.00 76 1017.2
20260902033047 81 0 0.0 0.0 0.00 0.00 0.00 75 1017.2
20260902032529 81 0 0.0 0.0 0.00 0.00 0.00 74 1017.2
20260902032031 81 0 0.0 0.0 0.00 0.00 0.00 74 1017.2
20260902031601 81 0 0.0 0.0 0.00 0.00 0.00 73 1017.3
20260902031028 81 0 0.0 0.0 0.00 0.00 0.00 73 1017.2
20260902030527 80 0 0.0 0.0 0.00 0.00 0.00 74 1017.3
20260902030057 80 0 0.0 0.0 0.00 0.00 0.00 75 1017.2
20260902025530 80 0 0.0 0.0 0.00 0.00 0.00 75 1017.2
20260902025030 80 0 0.0 0.0 0.00 0.00 0.00 74 1017.1
20260902024552 80 0 0.0 0.0 0.00 0.00 0.00 74 1017.1
20260902024028 80 0 0.0 0.0 0.00 0.00 0.00 75 1017.2
20260902023531 80 0 0.0 0.0 0.00 0.00 0.00 74 1017.1
20260902023054 80 0 0.0 0.0 0.00 0.00 0.00 74 1017.2
20260902022529 80 0 0.0 0.0 0.00 0.00 0.00 74 1017.1
20260902022028 81 0 0.0 0.0 0.00 0.00 0.00 74 1017.1
20260902021553 81 0 0.0 0.0 0.00 0.00 0.00 73 1017.1
20260902021031 81 0 0.0 0.0 0.00 0.00 0.00 73 1017.1
20260902020531 81 0 0.0 0.0 0.00 0.00 0.00 72 1017.0
20260902020054 81 0 0.0 0.0 0.00 0.00 0.00 72 1017.1
20260902015528 82 0 0.0 0.0 0.00 0.00 0.00 72 1017.0
20260902015028 82 0 0.0 0.0 0.00 0.00 0.00 72 1017.1
20260902014552 82 0 0.0 0.0 0.00 0.00 0.00 72 1017.0
20260902014032 82 0 0.0 0.0 0.00 0.00 0.00 71 1017.1
20260902013528 82 0 0.0 0.0 0.00 0.00 0.00 70 1017.1
20260902013104 82 0 0.0 0.0 0.00 0.00 0.00 70 1017.0
20260902012531 82 0 0.0 0.0 0.00 0.00 0.00 70 1016.8
20260902012028 83 0 0.0 0.0 0.00 0.00 0.00 69 1016.8
20260902011558 83 0 0.0 0.0 0.00 0.00 0.00 69 1016.8
20260902011028 83 0 0.0 0.0 0.00 0.00 0.00 69 1016.8
20260902010528 83 0 0.0 0.0 0.00 0.00 0.00 68 1016.7
20260902010059 84 0 0.0 0.0 0.00 0.00 0.00 67 1016.6
20260902005528 85 0 0.0 0.0 0.00 0.00 0.00 66 1016.5
20260902005031 85 0 0.0 0.0 0.00 0.00 0.00 64 1016.5
20260902004552 85 0 0.0 0.0 0.00 0.00 0.00 64 1016.5
20260902004029 86 0 0.0 0.0 0.00 0.00 0.00 63 1016.5
20260902003528 86 0 0.0 0.0 0.00 0.00 0.00 62 1016.5
20260902003048 87 0 0.0 0.0 0.00 0.00 0.00 61 1016.4
20260902002529 87 0 0.0 0.0 0.00 0.00 0.00 61 1016.5
20260902002028 87 0 0.0 0.0 0.00 0.00 0.00 61 1016.4
20260902001549 88 0 0.0 0.0 0.00 0.00 0.00 59 1016.5
20260902001028 88 0 0.0 0.0 0.00 0.00 0.00 58 1016.5
20260902000530 89 0 0.0 0.0 0.00 0.00 0.00 58 1016.6
20260902000045 90 0 0.0 0.0 0.00 0.00 0.00 55 1016.5
20260901235529 90 0 0.0 0.0 0.00 0.00 0.00 55 1016.5
20260901235032 91 0 0.0 0.0 0.00 0.00 0.00 54 1016.5
20260901234557 91 0 0.0 0.0 0.00 0.00 0.00 54 1016.5
20260901234028 91 0 0.0 1.0 0.00 0.00 0.00 53 1016.6
20260901233529 91 0 0.0 1.0 0.00 0.00 0.00 53 1016.7
20260901233046 92 0 0.0 1.0 0.00 0.00 0.00 52 1016.6
20260901232528 92 0 0.0 1.0 0.00 0.00 0.00 51 1016.7
20260901232029 92 0 0.0 1.0 0.00 0.00 0.00 51 1016.6
20260901231612 93 0 0.0 1.0 0.00 0.00 0.00 50 1016.8
20260901231030 93 82 0.0 2.0 0.00 0.00 0.00 49 1016.8
20260901230529 94 0 0.0 2.0 0.00 0.00 0.00 49 1016.7
20260901230108 95 0 0.0 2.0 0.00 0.00 0.00 48 1016.5
20260901225529 95 0 0.0 3.0 0.00 0.00 0.00 47 1016.6
20260901225030 95 0 0.0 4.0 0.00 0.00 0.00 46 1016.7
20260901224556 95 235 0.0 7.0 0.00 0.00 0.00 46 1016.6
20260901224030 95 188 1.0 7.0 0.00 0.00 0.00 46 1016.8
20260901223528 96 186 0.0 2.0 0.00 0.00 0.00 45 1016.7
20260901223051 95 63 0.0 3.0 0.00 0.00 0.00 45 1016.7
20260901222529 95 230 0.0 4.0 0.00 0.00 0.00 45 1016.7
20260901222036 95 0 1.0 4.0 0.00 0.00 0.00 46 1016.6
20260901221604 96 82 1.0 4.0 0.00 0.00 0.00 45 1016.5
20260901221030 96 0 0.0 4.0 0.00 0.00 0.00 46 1016.4
20260901220530 96 0 0.0 4.0 0.00 0.00 0.00 46 1016.6
20260901220058 96 0 0.0 4.0 0.00 0.00 0.00 46 1016.6
20260901215530 96 0 0.0 7.0 0.00 0.00 0.00 45 1016.4
20260901215029 96 0 1.0 7.0 0.00 0.00 0.00 45 1016.4
20260901214546 96 0 0.0 5.0 0.00 0.00 0.00 44 1016.3
20260901214028 96 0 0.0 7.0 0.00 0.00 0.00 45 1016.5
20260901213530 95 0 1.0 7.0 0.00 0.00 0.00 46 1016.5
20260901213054 95 8 1.0 7.0 0.00 0.00 0.00 47 1016.4
20260901212530 96 352 1.0 4.0 0.00 0.00 0.00 46 1016.3
20260901212029 96 25 0.0 3.0 0.00 0.00 0.00 46 1016.4
20260901211552 97 193 0.0 3.0 0.00 0.00 0.00 46 1016.5
20260901211102 97 0 0.0 3.0 0.00 0.00 0.00 46 1016.5
20260901210534 96 186 0.0 4.0 0.00 0.00 0.00 46 1016.5
20260901210046 96 0 0.0 4.0 0.00 0.00 0.00 47 1016.6
20260901205529 95 0 0.0 4.0 0.00 0.00 0.00 47 1016.7
20260901205029 95 146 1.0 5.0 0.00 0.00 0.00 48 1016.7
20260901204543 95 0 1.0 5.0 0.00 0.00 0.00 47 1016.8
20260901204030 95 101 0.0 8.0 0.00 0.00 0.00 47 1016.8
20260901203528 95 0 2.0 8.0 0.00 0.00 0.00 47 1016.9
20260901203057 96 335 0.0 4.0 0.00 0.00 0.00 46 1016.9
20260901202529 96 0 0.0 4.0 0.00 0.00 0.00 47 1016.8
20260901202030 95 0 0.0 5.0 0.00 0.00 0.00 47 1017.0
20260901201552 96 311 0.0 5.0 0.00 0.00 0.00 47 1017.2
20260901201028 96 295 1.0 5.0 0.00 0.00 0.00 48 1017.2
20260901200528 95 0 0.0 7.0 0.00 0.00 0.00 49 1017.2
20260901200046 94 17 1.0 7.0 0.00 0.00 0.00 48 1017.2
20260901195530 95 350 2.0 7.0 0.00 0.00 0.00 46 1017.3
20260901195027 96 0 2.0 8.0 0.00 0.00 0.00 48 1017.2
20260901194602 95 0 1.0 8.0 0.00 0.00 0.00 47 1017.4
20260901194029 95 330 1.0 8.0 0.00 0.00 0.00 48 1017.4
20260901193528 94 348 2.0 9.0 0.00 0.00 0.00 49 1017.4
20260901193100 94 21 3.0 9.0 0.00 0.00 0.00 49 1017.4
20260901192532 96 0 2.0 9.0 0.00 0.00 0.00 47 1017.5
20260901192027 96 229 2.0 9.0 0.00 0.00 0.00 46 1017.5
20260901191554 96 233 0.0 7.0 0.00 0.00 0.00 50 1017.5
20260901191028 96 0 0.0 7.0 0.00 0.00 0.00 48 1017.4
20260901190528 95 82 2.0 8.0 0.00 0.00 0.00 50 1017.5
20260901190049 95 4 4.0 8.0 0.00 0.00 0.00 51 1017.5
20260901185528 95 110 1.0 7.0 0.00 0.00 0.00 49 1017.6
20260901185028 95 0 1.0 7.0 0.00 0.00 0.00 49 1017.7
20260901184600 95 169 1.0 9.0 0.00 0.00 0.00 50 1017.8
20260901184031 94 0 2.0 9.0 0.00 0.00 0.00 52 1017.9
20260901183528 93 343 1.0 8.0 0.00 0.00 0.00 52 1017.9
20260901183116 93 292 1.0 5.0 0.00 0.00 0.00 51 1018.0
20260901182528 94 0 1.0 8.0 0.00 0.00 0.00 53 1018.1
20260901182030 93 240 4.0 8.0 0.00 0.00 0.00 53 1018.1
20260901181547 94 339 1.0 10.0 0.00 0.00 0.00 51 1018.1
20260901181031 93 223 3.0 10.0 0.00 0.00 0.00 54 1018.2
20260901180531 93 41 2.0 9.0 0.00 0.00 0.00 54 1018.2
20260901180055 92 359 2.0 8.0 0.00 0.00 0.00 56 1018.3
20260901175529 92 0 1.0 8.0 0.00 0.00 0.00 56 1018.3
20260901175029 92 91 0.0 8.0 0.00 0.00 0.00 56 1018.4
20260901174556 91 8 3.0 7.0 0.00 0.00 0.00 57 1018.5
20260901174027 92 360 1.0 9.0 0.00 0.00 0.00 55 1018.6
20260901173529 92 317 2.0 9.0 0.00 0.00 0.00 58 1018.6
20260901173100 92 4 3.0 10.0 0.00 0.00 0.00 57 1018.5
20260901172530 93 0 0.0 10.0 0.00 0.00 0.00 56 1018.5
20260901172028 92 340 3.0 9.0 0.00 0.00 0.00 57 1018.5
20260901171553 93 316 0.0 12.0 0.00 0.00 0.00 56 1018.5
20260901171034 92 254 3.0 12.0 0.00 0.00 0.00 58 1018.7
20260901170530 92 58 4.0 12.0 0.00 0.00 0.00 58 1018.8
20260901165526 93 356 1.0 7.0 0.00 0.00 0.00 56 1018.8
20260901165028 93 349 0.0 7.0 0.00 0.00 0.00 56 1018.9
20260901164553 92 0 1.0 7.0 0.00 0.00 0.00 59 1018.9
20260901164030 92 95 0.0 5.0 0.00 0.00 0.00 58 1018.8
20260901163528 92 0 0.0 5.0 0.00 0.00 0.00 60 1018.9
20260901163108 91 56 0.0 6.0 0.00 0.00 0.00 60 1019.1
20260901162528 91 320 2.0 12.0 0.00 0.00 0.00 61 1019.1
20260901162032 91 115 2.0 12.0 0.00 0.00 0.00 61 1019.1
20260901161605 91 23 0.0 9.0 0.00 0.00 0.00 60 1019.2
20260901161030 90 1 3.0 9.0 0.00 0.00 0.00 62 1019.1
20260901160528 90 32 2.0 8.0 0.00 0.00 0.00 63 1019.2
20260901160052 90 335 1.0 8.0 0.00 0.00 0.00 62 1019.1
20260901155528 89 322 3.0 8.0 0.00 0.00 0.00 63 1019.2
20260901155028 90 324 1.0 4.0 0.00 0.00 0.00 64 1019.3
20260901154554 90 10 0.0 6.0 0.00 0.00 0.00 63 1019.3
20260901154028 89 129 1.0 6.0 0.00 0.00 0.00 64 1019.3
20260901153531 89 351 1.0 4.0 0.00 0.00 0.00 64 1019.4
20260901153046 89 338 1.0 6.0 0.00 0.00 0.00 64 1019.4
20260901152534 89 288 2.0 6.0 0.00 0.00 0.00 65 1019.4
20260901152029 88 358 1.0 6.0 0.00 0.00 0.00 65 1019.3
20260901151553 89 29 1.0 3.0 0.00 0.00 0.00 65 1019.5
20260901151029 89 0 0.0 4.0 0.00 0.00 0.00 63 1019.3
20260901150529 89 0 0.0 4.0 0.00 0.00 0.00 64 1019.3
20260901150058 89 211 0.0 6.0 0.00 0.00 0.00 65 1019.3
20260901145530 88 165 0.0 6.0 0.00 0.00 0.00 67 1019.4
20260901145029 87 98 2.0 6.0 0.00 0.00 0.00 66 1019.5
20260901144546 88 131 1.0 5.0 0.00 0.00 0.00 66 1019.5
20260901144028 87 0 0.0 5.0 0.00 0.00 0.00 67 1019.4
20260901143530 87 165 0.0 3.0 0.00 0.00 0.00 66 1019.5
20260901143106 87 32 0.0 3.0 0.00 0.00 0.00 66 1019.4
20260901142528 86 104 0.0 2.0 0.00 0.00 0.00 66 1019.5
20260901142030 86 0 0.0 2.0 0.00 0.00 0.00 67 1019.6
20260901141554 86 0 0.0 3.0 0.00 0.00 0.00 69 1019.6
20260901141029 85 0 0.0 3.0 0.00 0.00 0.00 70 1019.7
20260901140527 85 0 1.0 3.0 0.00 0.00 0.00 69 1019.7
20260901140048 85 142 0.0 2.0 0.00 0.00 0.00 70 1019.7
20260901135531 84 0 0.0 4.0 0.00 0.00 0.00 71 1019.6
20260901135030 83 11 1.0 4.0 0.00 0.00 0.00 71 1019.7
20260901134554 84 24 0.0 3.0 0.00 0.00 0.00 72 1019.7
20260901134031 84 0 0.0 3.0 0.00 0.00 0.00 72 1019.8
20260901133533 84 82 0.0 3.0 0.00 0.00 0.00 71 1019.7
20260901133058 83 99 1.0 3.0 0.00 0.00 0.00 71 1019.7
20260901132529 83 0 0.0 3.0 0.00 0.00 0.00 73 1019.7
20260901132028 83 200 1.0 3.0 0.00 0.00 0.00 73 1019.7
20260901131555 82 227 0.0 2.0 0.00 0.00 0.00 74 1019.7
20260901131030 82 0 0.0 2.0 0.00 0.00 0.00 74 1019.7
20260901130529 82 0 0.0 2.0 0.00 0.00 0.00 75 1019.8
20260901130053 81 0 0.0 2.0 0.00 0.00 0.00 75 1019.7
20260901125528 81 0 0.0 1.0 0.00 0.00 0.00 76 1019.7
20260901125028 80 176 0.0 1.0 0.00 0.00 0.00 77 1019.6
20260901124549 79 0 0.0 2.0 0.00 0.00 0.00 78 1019.7
20260901124032 78 167 0.0 2.0 0.00 0.00 0.00 79 1019.6
20260901123530 77 169 0.0 2.0 0.00 0.00 0.00 81 1019.6
20260901123046 77 170 0.0 2.0 0.00 0.00 0.00 82 1019.6
20260901122529 76 0 0.0 2.0 0.00 0.00 0.00 83 1019.6
20260901122028 75 179 0.0 2.0 0.00 0.00 0.00 84 1019.6
20260901121602 75 191 0.0 1.0 0.00 0.00 0.00 85 1019.5
20260901121032 74 0 0.0 1.0 0.00 0.00 0.00 85 1019.5
20260901120529 74 175 0.0 0.0 0.00 0.00 0.00 85 1019.5
20260901120104 74 0 0.0 0.0 0.00 0.00 0.00 86 1019.4
20260901115528 74 0 0.0 1.0 0.00 0.00 0.00 86 1019.4
20260901115030 74 0 0.0 2.0 0.00 0.00 0.00 86 1019.2
20260901114602 74 0 0.0 2.0 0.00 0.00 0.00 86 1019.1
20260901114029 74 0 0.0 1.0 0.00 0.00 0.00 87 1019.1
20260901113530 73 0 0.0 1.0 0.00 0.00 0.00 87 1019.1
20260901113056 73 0 0.0 0.0 0.00 0.00 0.00 87 1019.1
20260901112530 74 0 0.0 2.0 0.00 0.00 0.00 86 1018.9
20260901112030 74 169 0.0 4.0 0.00 0.00 0.00 86 1018.8
20260901111559 73 212 0.0 6.0 0.00 0.00 0.00 87 1018.6
20260901111029 74 185 2.0 6.0 0.00 0.00 0.00 86 1018.6
20260901110527 73 172 2.0 4.0 0.00 0.00 0.00 87 1018.5
20260901110053 73 189 1.0 4.0 0.00 0.00 0.00 87 1018.5
20260901105530 74 0 0.0 3.0 0.00 0.00 0.00 87 1018.5
20260901105026 74 0 0.0 2.0 0.00 0.00 0.00 87 1018.4
20260901104551 74 181 0.0 3.0 0.00 0.00 0.00 87 1018.4
20260901104031 74 153 0.0 3.0 0.00 0.00 0.00 87 1018.4
20260901103529 74 184 1.0 3.0 0.00 0.00 0.00 87 1018.3
20260901103054 73 174 0.0 1.0 0.00 0.00 0.00 87 1018.3
20260901102528 73 0 0.0 0.0 0.00 0.00 0.00 88 1018.3
20260901102031 73 0 0.0 0.0 0.00 0.00 0.00 88 1018.2